GFSGBSN_850_temp_159.txt.gz
Temp
8 8 8 9 9 9 9 9 10 10 10 10 10 10 10 10 11 11 11 11 11 11 11 11 11 11 12 11 14 16 16 16 15 15 15 15 15 16 17 16 16 17 18 17 18 18 18
7 7 7 8 8 8 9 9 9 9 10 10 10 9 9 9 9 10 10 10 10 10 11 10 10 10 9 8 15 15 15 16 15 15 15 15 15 15 15 16 16 16 16 17 17 17 16
6 6 6 6 7 7 7 8 8 8 9 9 10 10 10 9 9 9 9 9 9 9 9 9 8 8 8 9 14 15 15 15 16 15 15 16 15 15 15 16 16 16 17 18 18 18 18
5 5 5 5 5 6 6 6 6 7 7 7 8 8 9 9 9 9 9 9 9 9 8 8 8 8 8 12 13 14 13 14 15 15 14 14 14 14 14 16 16 16 16 17 18 17 17
5 5 5 5 5 5 5 5 5 6 6 6 7 7 7 7 7 8 8 8 8 8 9 9 8 8 8 11 12 13 13 13 13 14 14 13 13 14 15 16 15 14 16 15 17 17 16
4 4 4 5 5 5 5 5 5 5 6 6 6 6 6 7 7 7 7 7 8 8 8 8 7 8 9 12 12 12 12 13 13 13 12 11 13 15 14 15 15 15 15 15 16 17 16
4 4 4 4 4 4 4 4 4 4 5 5 5 6 6 7 7 6 7 7 8 8 7 9 8 8 10 11 11 12 13 12 12 13 14 13 14 14 15 15 16 15 14 15 15 16 16
4 4 4 4 4 4 4 4 4 4 4 4 4 4 5 5 4 4 5 6 7 6 6 8 9 9 9 10 10 11 12 12 12 13 13 13 13 15 15 14 14 14 14 15 15 15 15
3 4 4 4 4 4 4 4 4 4 4 4 4 4 4 4 4 3 5 5 5 6 5 7 9 9 9 9 9 10 10 12 12 12 13 14 15 15 14 14 13 13 14 14 14 15 15
3 3 3 3 4 4 4 4 4 4 4 4 4 4 3 3 4 4 4 5 5 5 6 8 7 8 8 8 9 11 10 11 12 13 12 13 15 14 14 14 14 13 14 14 14 14 14
2 3 3 3 3 3 3 3 3 3 3 4 4 4 3 3 3 4 5 5 5 5 6 10 8 9 8 9 10 11 10 10 11 12 13 13 13 13 14 15 14 14 14 14 14 14 13
2 2 2 2 2 2 2 2 2 3 3 3 3 3 3 3 3 4 4 5 5 5 5 10 9 8 8 9 10 10 10 10 11 11 12 12 14 14 15 15 15 15 14 14 13 13 13
2 2 2 1 1 1 1 1 2 2 2 2 2 3 3 3 3 4 4 5 4 5 9 10 10 9 9 9 9 10 10 10 11 10 10 12 12 14 15 14 14 14 14 11 11 12 13
1 1 1 1 0 0 0 0 0 1 1 1 2 2 2 3 3 3 3 3 4 7 8 10 11 10 9 10 10 10 10 10 11 11 12 11 12 13 14 14 14 13 13 12 12 13 14
-0 -0 1 1 1 0 -0 -0 -0 -0 0 1 1 1 2 3 3 3 2 3 5 6 8 7 10 10 10 11 12 11 10 11 12 11 12 12 12 14 14 15 16 13 12 14 10 10 11
-1 -0 -0 0 0 0 -0 -0 -0 -0 -1 -0 0 1 2 3 3 2 2 3 4 5 6 7 8 9 10 11 11 11 12 12 12 12 12 14 12 13 13 14 15 14 14 11 9 11 11
-1 -1 -1 -0 -0 -0 -1 -1 -1 -1 -1 -0 -0 0 1 2 2 1 2 3 4 5 5 6 6 7 8 9 10 11 12 12 11 12 11 13 12 10 11 12 14 13 12 9 8 9 14
-1 -1 -1 -1 -1 -0 -1 -1 -1 -2 -1 -1 -1 -2 1 1 1 -0 2 3 4 4 5 6 7 5 6 7 8 10 11 12 10 11 11 10 11 8 9 10 9 11 11 8 9 9 9
-1 -1 -1 -1 -1 -1 -1 -1 -1 -2 -1 -1 -1 -1 -0 0 0 1 2 2 1 4 5 4 4 6 8 5 6 7 9 8 9 10 10 9 9 9 9 8 8 8 9 7 6 5 8
-1 -1 -1 -2 -1 -1 -1 -1 -1 -2 -1 -1 -1 -4 -1 -0 0 1 2 2 2 2 2 4 4 4 3 4 4 5 4 7 7 9 8 9 6 7 8 8 8 7 8 8 8 8 8
-1 -2 -2 -2 -1 -1 -1 -1 -1 -1 -2 -3 -2 -3 -2 -2 -2 -0 0 0 2 2 3 3 2 4 4 5 6 4 4 6 6 7 8 7 6 5 6 5 5 6 7 9 7 7 8
-1 -2 -2 -2 -1 -1 -1 -1 -1 -1 -2 -3 -3 -3 -3 -3 -2 -1 -0 0 0 1 0 1 2 4 4 3 4 5 6 4 4 4 4 6 7 6 6 8 7 6 6 7 8 8 8
-2 -2 -2 -2 -2 -2 -2 -1 -1 -2 -2 -3 -3 -2 -1 -3 -1 -1 -1 -0 2 -0 0 0 1 1 2 4 4 4 5 6 6 6 4 4 5 5 7 8 7 7 6 7 8 9 10
-2 -2 -2 -2 -2 -2 -2 -2 -2 -2 -2 -2 -2 -2 -2 -3 -2 -1 -0 0 0 1 -0 0 -1 -1 2 1 0 3 4 5 5 6 5 3 4 5 6 6 7 9 9 9 8 9 10
-2 -2 -2 -2 -2 -2 -2 -2 -2 -2 -2 -2 -2 -2 -2 -4 -2 -1 -2 -1 -1 -1 -1 -1 0 1 1 1 2 2 3 4 5 5 4 4 4 5 6 6 8 9 8 8 8 10 10
-2 -1 -2 -2 -2 -2 -2 -2 -2 -2 -2 -3 -3 -2 -2 -4 -2 -1 -1 -2 -2 -2 -1 0 1 1 2 1 1 3 3 4 5 5 6 4 5 4 4 5 6 9 9 8 10 8 10
-2 -2 -1 -2 -2 -2 -2 -2 -2 -2 -2 -3 -3 -3 -3 -3 -2 -2 -2 -1 -1 -1 -1 -1 0 1 1 1 2 2 3 5 5 6 5 4 4 4 5 5 6 9 9 8 8 10 9
-1 -2 -2 -2 -2 -1 -2 -2 -2 -2 -2 -3 -3 -3 -3 -3 -3 -2 -1 -1 -1 -1 -1 -1 -0 -0 1 1 3 4 3 4 5 6 6 5 5 5 5 5 6 8 7 9 10 8 10
-1 -1 -2 -2 -2 -2 -2 -2 -2 -2 -2 -3 -3 -3 -3 -3 -3 -2 -2 -1 -1 -1 -1 -1 -1 -1 -1 -1 0 1 3 3 3 4 4 5 7 7 7 7 6 6 7 9 9 9 9

GFSGBSN_850_temp_162.txt.gz
Temp
8 8 8 8 8 9 9 9 9 9 9 10 10 10 11 11 11 11 10 10 10 10 11 11 11 12 12 12 14 15 16 15 15 15 15 16 18 19 20 21 20 21 22 22 21 21 21
7 8 8 8 8 8 8 8 8 9 9 9 9 9 9 10 11 11 11 11 10 10 10 10 10 10 8 10 14 15 14 14 14 14 15 16 17 17 18 19 20 21 20 21 21 21 21
6 6 7 7 7 7 7 8 7 8 8 9 9 9 10 9 9 9 10 10 10 10 9 9 9 8 8 10 14 14 12 14 16 13 14 15 15 16 18 19 19 19 19 21 22 22 22
6 5 6 6 6 6 6 6 6 6 6 6 7 7 8 8 8 8 9 9 9 9 9 9 9 9 8 13 12 11 11 12 12 13 12 13 14 15 17 17 18 19 20 20 23 22 22
5 5 5 5 5 5 5 6 6 6 6 7 6 7 7 7 7 7 7 8 8 8 8 8 8 8 9 11 12 12 12 12 12 12 12 12 13 15 17 17 19 20 20 21 21 22 23
5 5 5 5 5 5 5 5 5 5 5 6 6 7 6 6 6 7 7 7 8 8 8 8 7 8 9 13 12 11 12 12 12 13 13 13 15 17 18 19 19 21 21 21 20 23 21
4 4 5 4 5 4 5 5 5 5 5 5 5 5 6 6 7 7 7 7 7 7 7 10 9 9 12 11 11 12 12 13 13 14 16 15 17 17 19 20 21 21 20 20 21 21 19
4 4 4 4 4 4 4 4 4 4 5 5 5 5 5 5 6 5 5 5 6 6 7 8 9 9 10 11 11 12 12 13 15 16 18 17 16 20 20 20 19 19 19 19 20 21 20
4 4 4 4 4 4 4 4 4 4 4 4 4 4 4 4 5 4 4 5 5 6 7 9 9 11 11 11 11 12 13 14 15 16 17 17 19 20 19 18 18 18 18 19 19 20 20
3 4 3 3 3 3 3 4 4 4 4 4 4 4 4 4 4 4 4 5 5 6 9 13 11 11 10 10 12 12 12 13 15 15 17 17 19 19 18 18 18 17 19 18 18 18 18
3 3 3 3 3 3 3 3 3 3 3 3 3 4 4 4 4 4 4 5 5 5 9 15 11 10 10 11 12 13 12 12 14 16 16 16 17 17 17 18 18 17 18 18 17 18 18
3 3 2 3 3 3 3 2 2 2 3 3 3 3 3 3 4 5 5 5 5 7 8 13 12 11 11 11 12 12 12 12 13 13 14 15 17 16 17 17 17 18 16 16 17 16 16
2 2 2 2 2 2 2 1 1 2 2 2 3 3 3 3 3 4 4 4 6 8 13 14 13 12 12 13 12 13 12 12 13 10 11 14 15 17 16 15 15 15 13 12 12 12 15
1 2 2 2 2 2 1 1 1 1 1 1 2 2 3 3 4 4 4 4 5 11 11 13 13 13 12 13 13 13 13 11 13 15 16 15 16 17 17 15 14 14 13 14 14 16 19
0 1 1 1 2 1 1 1 0 0 0 0 1 1 2 2 3 3 3 4 7 10 12 11 13 12 13 14 14 14 14 14 15 15 14 15 16 18 17 18 16 13 12 14 12 12 14
-1 -0 -0 0 0 1 1 0 0 -0 -0 -0 0 1 2 3 2 3 2 3 5 9 9 9 10 13 13 14 13 14 15 16 15 16 16 15 12 16 16 17 17 14 14 11 9 12 13
-1 -1 -1 -0 -0 0 0 0 -0 -0 -1 -1 -1 1 1 2 2 1 2 4 5 6 5 7 9 10 11 11 12 14 14 16 15 15 15 14 12 11 13 14 15 15 12 10 9 11 13
-1 -1 -1 -1 -1 -0 -0 -1 -1 -1 -1 -1 -1 1 0 2 2 1 3 4 3 6 5 5 7 7 8 9 9 11 13 14 10 13 14 16 12 12 12 14 12 11 10 10 10 11 11
-1 -1 -1 -1 -1 -1 -1 -1 -1 -1 -1 -2 -1 1 0 1 2 3 4 4 2 4 4 3 6 8 9 9 7 10 10 9 8 10 12 15 12 12 12 11 10 11 12 9 8 6 9
-1 -1 -1 -1 -1 -1 -1 -1 -1 -1 -2 -2 -1 0 -0 -1 1 3 4 4 4 1 2 3 3 6 6 5 5 5 5 7 6 7 6 9 12 11 12 11 8 8 8 8 6 8 9
-1 -1 -1 -1 -1 -1 -1 -1 -1 -1 -2 -2 -1 0 2 1 1 2 2 3 4 4 4 3 2 4 5 5 4 4 6 6 4 4 4 3 8 9 8 10 9 8 8 8 7 7 8
-1 -1 -2 -1 -1 -1 -1 -1 -1 -1 -2 -3 -2 -1 -1 2 2 2 2 2 2 3 1 1 1 3 2 4 6 5 5 6 6 5 4 3 5 7 6 10 11 9 9 10 9 7 8
-1 -1 -1 -2 -1 -1 -1 -1 -1 -2 -2 -3 -3 -1 0 1 2 2 2 2 2 2 3 0 -0 1 2 1 1 2 3 5 6 6 5 4 4 6 8 10 11 9 10 10 11 11 11
-2 -2 -2 -2 -2 -2 -1 -1 -1 -2 -1 -2 -2 -1 0 1 2 2 2 2 2 2 1 2 1 -1 1 1 2 3 4 4 6 7 6 5 4 5 7 8 7 10 12 12 12 13 14
-1 -1 -2 -2 -2 -2 -2 -1 -1 -2 -2 -2 -1 -1 -1 1 2 2 2 2 2 2 2 1 1 2 2 1 1 3 5 5 6 7 7 7 6 5 6 7 9 11 12 11 11 12 14
-2 -1 -1 -2 -2 -2 -2 -2 -2 -2 -2 -2 -2 -2 -1 0 2 1 2 2 2 2 2 1 1 1 1 3 3 2 4 6 7 8 9 8 6 6 6 5 6 11 12 11 12 10 14
-1 -2 -1 -1 -2 -1 -2 -2 -2 -2 -2 -2 -3 -2 -1 -1 0 -0 1 1 1 2 2 3 2 2 2 2 3 3 4 6 5 7 6 6 4 4 6 6 8 11 12 12 9 11 14
-1 -2 -2 -2 -2 -2 -1 -2 -2 -2 -2 -2 -3 -3 -2 -2 -1 -1 -0 0 1 1 2 2 2 2 2 2 3 4 4 5 5 7 8 6 5 5 6 5 6 12 12 10 12 13 12
-1 -1 -1 -2 -1 -2 -2 -2 -2 -2 -2 -2 -3 -3 -3 -2 -1 -1 -2 -1 -0 1 1 1 1 1 1 1 1 1 1 3 4 5 9 7 8 8 8 9 11 9 10 10 9 10 11

GFSGBSN_850_temp_165.txt.gz
Temp
9 9 9 9 9 9 9 9 9 9 10 10 10 10 10 11 11 11 11 11 11 11 11 12 12 12 12 14 16 17 16 16 16 16 17 18 19 21 22 24 24 24 25 24 25 25 24
8 8 8 8 8 9 9 9 9 9 10 9 9 10 10 10 10 10 11 10 10 11 11 11 11 11 9 12 15 16 15 15 16 16 17 18 19 20 20 21 22 23 24 24 24 24 24
7 7 7 8 8 8 8 8 8 9 9 9 9 9 9 9 9 10 10 10 9 9 9 9 9 9 8 11 14 15 15 15 15 15 16 17 18 18 19 22 22 22 22 23 24 24 25
6 6 6 7 7 7 7 7 7 8 8 7 7 7 8 8 8 9 9 9 9 9 8 8 9 8 8 13 13 13 14 14 14 14 15 16 16 17 18 19 20 21 22 22 25 26 26
6 6 6 6 6 6 6 6 6 7 7 7 7 7 7 7 7 7 8 8 8 8 8 8 8 8 11 13 12 13 14 14 16 15 15 15 15 16 18 20 20 21 21 23 25 26 25
5 5 5 5 6 5 5 6 6 6 6 6 6 6 7 7 7 7 7 7 7 7 7 7 7 8 10 14 15 15 15 15 15 16 15 15 17 19 19 20 19 22 23 24 24 25 26
5 5 5 5 5 5 5 5 5 5 5 5 5 6 6 6 7 7 7 7 7 8 7 11 11 11 15 14 13 15 15 14 15 16 18 18 19 19 20 21 21 22 23 23 25 26 24
5 5 5 5 5 5 5 5 5 5 5 5 5 5 5 5 6 6 7 7 8 7 10 10 10 12 12 13 14 15 15 15 17 18 19 18 18 21 22 22 22 22 22 22 23 24 24
4 4 4 4 4 4 4 4 4 4 4 4 4 4 4 5 5 5 6 7 7 7 9 11 12 12 13 13 13 14 15 15 17 17 18 18 20 22 21 21 21 22 21 22 22 23 24
4 4 4 4 4 4 4 4 4 4 4 4 4 4 4 4 5 6 6 7 6 6 11 15 15 14 13 13 15 14 14 15 17 17 18 18 20 20 20 20 21 21 22 22 21 20 20
3 3 4 4 4 4 4 3 3 3 3 4 4 4 4 4 5 6 6 6 6 6 9 18 18 13 14 14 16 16 15 16 16 17 17 17 19 20 20 21 20 20 22 19 18 18 17
3 3 3 3 3 4 4 3 3 3 3 3 3 3 3 3 4 5 5 5 5 8 9 15 15 14 14 14 15 15 15 15 16 16 17 17 19 20 20 21 20 20 18 17 15 17 14
2 2 2 3 3 3 3 3 3 3 3 3 3 3 3 4 4 5 5 5 6 8 15 15 15 15 15 15 15 16 14 15 16 13 13 16 17 18 18 16 18 18 16 12 13 13 15
1 1 2 2 2 2 2 2 2 2 3 1 2 2 2 3 4 4 4 4 6 12 13 17 16 16 15 16 17 17 16 15 17 16 18 17 17 18 19 18 16 17 16 13 14 16 19
1 1 1 1 2 2 2 2 2 2 1 1 1 2 2 2 3 3 3 4 6 11 15 14 15 14 15 16 16 17 16 17 17 17 14 17 18 21 19 20 18 16 13 17 15 17 14
-0 -0 -0 0 0 1 1 1 1 1 1 0 0 1 2 3 3 2 2 4 6 10 12 9 10 12 14 16 16 16 16 18 17 17 17 16 15 19 20 17 15 17 19 12 10 11 13
-1 -1 -0 -0 0 0 0 0 1 1 0 0 -0 -0 2 3 3 2 3 4 7 8 8 8 10 11 12 13 15 16 16 13 13 12 15 16 16 14 14 16 17 16 14 13 12 10 14
-1 -1 -1 -0 -0 -0 -0 0 -0 0 0 -1 -1 0 2 2 2 2 4 6 5 8 4 5 6 8 9 10 10 12 14 12 10 12 13 13 13 12 12 17 16 16 13 10 9 11 12
-1 -1 -1 -1 -0 -0 -0 -0 -1 -0 -1 -1 -1 -0 1 2 3 4 6 7 7 7 7 3 4 7 8 8 8 10 12 8 6 9 6 9 13 13 14 16 16 14 15 13 7 6 8
-1 -1 -1 -1 -1 -1 -1 -1 -1 -1 -1 -1 -1 1 0 0 3 5 6 6 6 5 5 4 3 5 4 5 7 6 10 9 5 5 4 8 11 12 12 15 13 9 9 9 8 8 10
-1 -1 -1 -1 -1 -1 -1 -1 -1 -1 -1 -2 -2 -0 2 1 2 3 5 4 6 6 6 4 3 3 4 4 5 7 7 8 8 7 6 5 6 6 8 10 13 11 10 11 9 9 8
-1 -1 -2 -1 -1 -1 -1 -1 -1 -1 -1 -2 -2 0 1 2 4 4 4 3 4 5 1 2 2 3 3 3 2 3 3 6 8 9 7 4 5 5 5 10 10 11 13 14 13 14 12
-1 -1 -1 -1 -1 -1 -1 -1 -1 -1 -2 -2 -1 1 2 4 4 4 4 4 5 5 4 4 4 3 3 1 1 2 4 5 6 8 7 4 4 4 5 9 7 8 11 14 14 14 14
-1 -2 -1 -1 -1 -1 -1 -1 -1 -1 -1 -1 -1 1 1 2 4 4 4 4 4 5 3 4 3 1 3 2 2 4 5 7 7 7 8 6 4 4 5 7 6 11 13 14 13 14 15
-1 -1 -2 -1 -1 -1 -1 -1 -1 -1 -1 -1 -1 -0 0 2 3 4 4 4 4 4 4 4 4 4 3 3 2 3 5 7 8 8 8 9 6 5 5 6 9 11 13 14 12 12 15
-1 -1 -1 -2 -2 -1 -1 -1 -1 -2 -1 -2 -1 0 0 2 4 4 4 4 4 4 5 4 4 2 2 3 3 1 4 5 7 8 10 9 8 5 5 5 6 11 14 13 13 11 14
-2 -1 -1 -1 -1 -2 -1 -1 -1 -2 -2 -2 -2 -1 -0 1 3 3 4 4 4 4 4 5 3 3 2 2 2 2 4 7 6 6 7 7 7 6 6 6 8 12 13 14 10 11 14
-1 -2 -2 -1 -1 -1 -2 -2 -2 -2 -2 -2 -2 -1 -1 0 2 2 2 2 3 4 3 2 3 4 3 2 3 4 4 6 6 8 8 7 5 6 7 6 6 13 13 11 13 13 13
-1 -1 -2 -1 -1 -2 -1 -2 -2 -2 -2 -2 -2 -2 -1 -1 1 1 1 1 2 2 2 2 3 3 4 3 3 2 4 4 5 5 9 7 4 7 8 9 12 12 12 12 10 12 12

GFSGBSN_850_temp_168.txt.gz
Temp
10 9 9 9 10 10 10 10 10 10 10 11 11 11 11 11 11 11 11 11 11 11 11 12 12 11 12 12 14 16 16 17 17 17 18 19 19 20 21 23 24 24 25 25 25 25 26
9 9 9 9 9 9 9 9 9 10 10 10 10 10 10 10 10 11 11 11 11 11 11 11 11 10 9 10 15 16 17 17 17 17 18 19 19 20 21 21 21 22 23 24 24 24 25
9 8 8 8 8 8 8 9 9 9 9 9 9 9 9 10 10 10 10 10 10 10 10 10 10 9 9 10 15 15 16 16 16 16 16 17 18 18 19 20 21 22 22 23 24 24 24
8 8 7 7 8 8 8 7 8 8 8 8 8 8 9 9 9 9 9 9 10 9 9 9 9 8 8 12 14 14 17 14 15 16 16 16 16 17 18 19 19 20 21 20 23 24 25
7 7 6 6 7 7 7 7 7 7 7 7 7 7 7 7 7 8 8 8 9 8 9 8 9 8 10 13 13 15 13 14 15 17 16 17 17 17 18 18 18 19 19 20 22 25 26
6 6 6 6 6 6 6 6 6 6 6 6 6 6 7 7 7 7 7 8 8 8 8 7 7 8 10 14 15 16 16 16 16 17 17 17 17 18 18 18 17 20 21 23 23 25 26
6 6 5 5 6 6 6 6 6 6 5 5 5 6 6 6 6 7 7 7 8 9 7 10 11 11 16 16 16 16 17 16 16 17 17 19 18 17 19 21 20 21 21 21 23 25 25
5 5 5 5 5 5 5 5 5 5 5 5 5 5 5 5 5 6 7 7 9 8 9 10 9 11 12 13 14 15 16 17 17 17 19 18 18 20 21 22 21 21 21 21 23 24 24
5 5 5 5 5 5 5 5 5 5 5 4 4 4 5 5 5 6 6 7 9 8 9 11 12 12 13 13 14 15 15 16 17 17 18 18 19 21 20 20 21 21 21 21 21 23 24
5 4 4 5 5 5 5 5 4 4 4 4 4 4 4 4 6 6 7 8 8 7 9 13 16 15 14 14 15 15 15 16 17 17 18 18 20 20 20 20 21 19 21 22 22 21 19
4 4 4 4 4 4 4 4 4 4 4 4 4 4 4 4 5 6 7 7 7 6 8 17 18 17 16 15 17 18 16 16 16 17 17 16 18 19 19 20 21 20 21 21 19 17 17
4 4 4 4 4 4 4 4 4 4 4 4 4 4 3 4 5 6 6 6 6 7 8 15 17 16 16 16 16 18 16 16 16 16 17 17 18 19 20 21 21 20 19 17 16 13 12
3 3 3 3 3 3 3 3 3 4 4 4 4 4 3 3 4 5 5 5 6 7 14 15 16 17 16 16 16 17 17 17 15 15 15 17 18 19 20 19 19 19 17 13 13 12 14
1 2 2 2 2 3 3 3 3 3 3 3 3 3 4 3 4 5 4 4 5 10 12 18 18 17 16 17 17 17 16 16 17 16 17 16 15 18 19 19 18 18 17 15 14 15 17
0 1 1 2 2 2 2 2 2 2 2 3 2 2 2 3 4 4 3 4 6 9 14 14 11 12 14 17 17 17 16 14 17 17 15 16 16 19 21 20 19 18 15 17 15 16 15
0 0 1 1 1 2 2 2 2 1 1 1 1 1 2 3 3 3 3 4 6 10 11 10 7 11 12 15 15 16 16 18 16 16 11 13 12 18 20 18 18 17 18 14 13 12 13
0 -0 1 0 0 1 1 1 1 1 1 1 1 -0 1 3 3 3 3 4 7 8 9 6 6 9 11 11 12 12 13 15 10 12 13 11 10 13 15 16 14 15 13 13 10 11 13
-1 -1 -0 -0 0 0 0 1 1 0 -0 0 0 0 2 2 2 1 3 6 7 9 9 6 6 8 9 9 9 10 11 7 9 10 9 9 8 10 11 13 15 14 13 14 10 10 9
-1 -1 -0 -0 -0 -0 -0 0 0 -0 -0 -0 -1 0 2 2 3 3 6 6 7 7 9 3 4 3 4 6 5 9 10 6 7 7 6 7 9 9 12 12 13 12 12 10 7 7 9
-0 -0 -0 -1 -1 -0 -0 -0 -0 -0 -0 -0 -1 1 0 1 1 2 5 6 7 8 8 8 3 5 6 6 7 4 6 8 6 8 5 8 9 8 8 8 9 8 10 11 9 9 11
-1 -1 -1 -1 -1 -0 -0 -0 -0 -0 -0 -1 -1 0 1 2 1 3 3 3 6 6 6 3 5 6 6 4 5 5 5 5 7 6 8 8 7 7 7 8 10 11 11 10 8 9 9
-1 -1 -1 -1 -1 -1 -1 -1 -1 -1 -1 -2 -1 0 2 1 4 3 4 3 5 6 4 3 3 4 3 3 3 3 2 4 3 6 7 6 6 6 5 9 10 9 9 10 11 9 10
-1 -1 -1 -1 -1 -1 -1 -1 -1 -1 -2 -2 -1 -0 0 2 3 3 3 3 4 5 5 5 5 4 4 4 1 2 3 4 4 4 6 4 5 5 6 9 8 6 10 11 10 13 13
-1 -1 -1 -1 -1 -1 -1 -1 -1 -1 -1 -2 -1 0 0 2 3 3 5 3 4 5 4 6 5 4 4 2 3 4 4 5 6 7 7 6 6 6 6 7 5 9 12 11 9 8 11
-1 -1 -1 -1 -1 -1 -1 -1 -1 -1 -1 -1 -1 -1 0 2 4 4 3 3 4 5 4 5 5 5 4 4 3 3 4 6 7 8 8 8 7 5 5 6 7 8 10 11 12 10 14
-1 -1 -1 -1 -1 -1 -1 -1 -1 -1 -1 -1 -0 -1 0 1 3 3 4 4 4 4 4 5 5 5 4 4 3 1 2 5 4 8 10 9 8 6 5 5 6 10 12 14 13 9 14
-1 -1 -1 -1 -1 -1 -2 -1 -1 -1 -1 -1 -1 -1 -1 -0 3 2 2 3 4 5 5 5 4 3 3 2 1 2 3 5 4 6 7 5 4 4 5 5 7 11 12 12 7 10 14
-1 -1 -1 -1 -1 -2 -2 -1 -1 -1 -1 -1 -1 -1 -1 1 2 3 3 4 4 5 4 4 3 2 3 1 2 3 3 4 5 6 7 7 6 5 5 5 6 11 10 10 10 11 12
-1 -1 -1 -1 -2 -2 -2 -1 -1 -1 -1 -2 -2 -1 -1 -1 1 1 2 3 3 4 3 3 2 3 0 1 2 1 1 2 3 4 8 6 6 4 3 4 6 6 11 9 7 9 9